星链-34651 (STARLINK-34651)

导读

STARLINK-34651是美国星链项目的一颗卫星,于2025年7月19日发射升空,隶属于美国太空探索技术公司SpaceX的Starlink星座网络。该卫星旨在为全球用户提供低延迟、高速率的宽带互联网服务,尤其覆盖偏远地区与网络基础设施薄弱区域,是星链大规模星座部署中的组成单元,依托近地轨道架构提升全球网络接入能力。

基本信息
目录编号:
64861
目录名称:
STARLINK-34651
国际标识:
2025-152V
轨道中心:
EARTH
卫星名称:
星链-34651
卫星全名:
星链-34651 (STARLINK-34651)
卫星状态:
在轨 (已飞行412 天)
发射日期:
2025-07-19 UTC
国别 :
美国 (US)
星等 :
--
轨道信息
数据来源 国际轨道数据 AOE轨道数据
星历时间 2026-09-04T00:38:42+0800
13小时前
查看轨道信息
2026-09-03T07:00:00+0800
1天前
查看轨道信息
半长轴 6843.696km 6843.732km
偏心率 0.0001796 0.0002052
轨道倾角 97.285° 97.282°
近地点辐角 92.238° 98.735°
升交点赤经 97.442° 96.718°
平近点角 267.907° 165.447°
近地点 464.329km 464.19km
远地点 466.789km 467km
周期 93.907分钟 93.907分钟
每日圈数 15.334399 15.334278
详细信息
固有亮度:
5
最大亮度:
2.5
卫星平台:
Starlink V1.0
覆盖范围:
全球
运营商:
太空探索技术公司
运营商所在国:
美国
制造商(研发单位):
太空探索技术公司
制造商所在国:
美国
使用方式:
暂无
卫星简介
Starlink 计划是 SpaceX 推出的全球卫星互联网项目,通过发射低轨道卫星,为全球尤其是偏远地区提供高速、低延迟的互联网服务。自 2019 年起,Starlink 已部署数千颗卫星,旨在缩小全球数字鸿沟,推动互联网普及。该项目还为军事、航空等行业提供通信支持,带来广泛经济效益。
2D轨道图
3D轨道图
轨道高度分析图
轨道倾角分析图
轨道综合分析图
查看轨道综合分析图